Terug naar catalogus

AMC-7

GE-7

ActiefCommunicatieGEO
NORAD 26495·PAYLOAD·🇱🇺 Luxembourg

Gelanceerd Sep 14, 2000 vanaf Guiana Space Centre

Loading…

TLE

VersSource: Space-Track

Epoch: Sep 14, 2026, 05:19 UTC

1 26495U 00054B   26257.22195074 -.00000081  00000-0  00000-0 0  9997
2 26495   7.1354  69.1518 0007382 119.8246 260.5096  0.99135095 94854

Volg AMC-7 in realtime met AllMySat

Download on the App Store